TimeMST,TemperatureF,Dew PointF,Humidity,Sea Level PressureIn,VisibilityMPH,Wind Direction,Wind SpeedMPH,Gust SpeedMPH,PrecipitationIn,Events,Conditions,WindDirDegrees,DateUTC
12:11 AM,21.2,17.6,86,30.19,1.2,Calm,Calm,-,N/A,,Overcast,0,2013-01-08 07:11:00
12:18 AM,19.4,17.6,93,30.18,2.0,NNW,3.5,-,N/A,,Overcast,330,2013-01-08 07:18:00
12:46 AM,21.2,17.6,86,30.19,2.0,West,3.5,-,N/A,,Overcast,280,2013-01-08 07:46:00
12:53 AM,21.0,18.0,88,30.29,2.0,West,3.5,-,N/A,,Overcast,270,2013-01-08 07:53:00
1:53 AM,19.9,18.0,92,30.30,2.5,West,3.5,-,N/A,,Overcast,280,2013-01-08 08:53:00
2:53 AM,21.0,18.0,88,30.31,2.0,Calm,Calm,-,N/A,,Overcast,0,2013-01-08 09:53:00
3:20 AM,21.2,17.6,86,30.23,1.8,Calm,Calm,-,N/A,,Overcast,0,2013-01-08 10:20:00
3:46 AM,21.2,17.6,86,30.23,2.0,Calm,Calm,-,N/A,,Overcast,0,2013-01-08 10:46:00
3:53 AM,21.0,18.0,88,30.32,2.0,Calm,Calm,-,N/A,,Overcast,0,2013-01-08 10:53:00
4:06 AM,21.2,17.6,86,30.23,1.2,Calm,Calm,-,N/A,,Overcast,0,2013-01-08 11:06:00
4:18 AM,21.2,19.4,93,30.23,0.8,Calm,Calm,-,N/A,,Overcast,0,2013-01-08 11:18:00
4:53 AM,21.0,19.0,92,30.32,0.8,Calm,Calm,-,N/A,,Overcast,0,2013-01-08 11:53:00
5:42 AM,19.4,17.6,93,30.22,1.2,NW,3.5,-,N/A,,Overcast,310,2013-01-08 12:42:00
5:53 AM,21.0,18.0,88,30.31,1.5,WNW,3.5,-,N/A,,Overcast,290,2013-01-08 12:53:00
6:53 AM,21.0,18.0,88,30.32,1.8,Calm,Calm,-,N/A,,Overcast,0,2013-01-08 13:53:00
7:11 AM,21.2,19.4,93,30.22,1.2,Calm,Calm,-,N/A,,Overcast,0,2013-01-08 14:11:00
7:22 AM,21.2,19.4,93,30.22,1.8,Calm,Calm,-,N/A,,Overcast,0,2013-01-08 14:22:00
7:40 AM,21.2,19.4,93,30.22,1.8,Calm,Calm,-,N/A,,Overcast,0,2013-01-08 14:40:00
7:51 AM,21.2,19.4,93,30.22,1.8,Calm,Calm,-,0.00,Snow,Light Snow,0,2013-01-08 14:51:00
7:53 AM,21.9,19.0,89,30.31,1.5,Calm,Calm,-,0.00,Snow,Light Snow,0,2013-01-08 14:53:00
8:34 AM,21.2,19.4,93,30.23,1.0,Calm,Calm,-,0.00,Snow,Light Snow,0,2013-01-08 15:34:00
8:53 AM,21.9,19.0,89,30.32,1.2,Calm,Calm,-,0.00,,Overcast,0,2013-01-08 15:53:00
9:53 AM,23.0,19.9,88,30.35,1.5,Calm,Calm,-,0.00,,Overcast,0,2013-01-08 16:53:00
10:53 AM,25.0,19.9,81,30.35,1.8,South,5.8,-,0.00,,Haze,190,2013-01-08 17:53:00
11:00 AM,24.8,21.2,86,30.25,2.0,South,4.6,-,N/A,,Overcast,170,2013-01-08 18:00:00
11:53 AM,26.1,21.0,81,30.32,2.5,SSE,8.1,-,N/A,,Haze,160,2013-01-08 18:53:00
12:53 PM,30.0,24.1,79,30.30,2.5,East,5.8,-,N/A,,Haze,90,2013-01-08 19:53:00
1:53 PM,32.0,25.0,75,30.30,2.0,East,3.5,-,N/A,,Haze,80,2013-01-08 20:53:00
2:53 PM,35.1,27.0,72,30.27,4.0,Calm,Calm,-,N/A,,Haze,0,2013-01-08 21:53:00
3:53 PM,35.1,28.9,78,30.28,4.0,Calm,Calm,-,N/A,,Haze,0,2013-01-08 22:53:00
4:53 PM,35.1,28.9,78,30.29,4.0,NNW,6.9,-,N/A,,Haze,330,2013-01-08 23:53:00
5:53 PM,32.0,27.0,82,30.30,4.0,NNW,5.8,-,N/A,,Haze,330,2013-01-09 00:53:00
6:53 PM,32.0,27.0,82,30.32,3.0,Calm,Calm,-,N/A,,Haze,0,2013-01-09 01:53:00
7:53 PM,32.0,27.0,82,30.32,4.0,North,3.5,-,N/A,,Haze,10,2013-01-09 02:53:00
8:53 PM,32.0,28.0,85,30.30,3.0,Calm,Calm,-,N/A,,Overcast,0,2013-01-09 03:53:00
9:53 PM,28.4,26.6,93,30.22,6.0,Calm,Calm,-,N/A,,Mostly Cloudy,0,2013-01-09 04:53:00
10:53 PM,25.0,21.9,88,30.31,6.0,NW,5.8,-,N/A,,Partly Cloudy,320,2013-01-09 05:53:00
11:00 PM,26.6,24.8,93,30.22,1.8,WNW,4.6,-,N/A,,Partly Cloudy,300,2013-01-09 06:00:00
11:03 PM,24.8,24.8,100,30.22,3.0,NW,5.8,-,N/A,,Partly Cloudy,320,2013-01-09 06:03:00
11:53 PM,23.0,21.0,92,30.31,3.0,Calm,Calm,-,N/A,,Clear,0,2013-01-09 06:53:00